GFSSGP_850_rhum_210.txt.gz
RH
19 15 15 20 14 11 6 10 11 12 12 12 13 21 17 20 27 33 66 72 55 72 20 26 34 36 36 31 25 25 30 31 30 34 47 55 54 51 46 38 36 36 37 38 40 42 41 41 39
21 17 19 15 12 8 10 12 13 12 12 13 15 27 35 31 54 62 70 61 65 76 35 27 34 34 28 19 17 20 20 19 19 19 25 33 34 33 32 33 33 33 33 36 38 37 40 41 41
22 17 14 11 10 9 12 11 12 13 13 13 22 42 37 35 59 64 69 63 74 70 28 18 24 24 17 15 17 19 18 18 18 19 22 26 28 29 30 30 32 34 36 39 40 40 42 43 42
24 18 15 12 10 11 11 11 14 14 12 14 18 30 49 68 67 75 49 54 78 73 58 18 19 18 18 19 20 22 22 22 23 23 24 26 26 28 32 34 37 38 42 45 44 46 43 41 42
24 17 14 13 10 10 10 12 17 15 15 14 25 29 38 74 57 57 50 57 72 69 69 23 22 22 23 24 25 26 27 27 28 29 30 31 32 35 37 40 43 61 69 66 56 55 50 46 44
20 17 15 13 10 11 12 17 17 16 16 24 33 32 45 76 77 56 56 55 62 60 36 26 28 30 30 30 30 31 32 33 34 35 36 38 40 42 45 49 58 81 79 71 64 64 66 61 59
19 18 15 14 15 13 13 18 16 16 14 20 42 22 49 72 65 55 56 56 48 43 37 28 29 34 37 38 37 36 38 39 40 41 43 46 50 53 54 58 71 72 64 74 73 73 71 67 64
20 18 19 17 16 12 15 17 17 16 14 17 33 22 30 68 58 58 58 60 60 51 39 32 33 35 39 42 44 44 44 45 47 49 51 52 55 58 62 63 66 66 68 68 69 72 73 72 69
24 20 18 17 18 14 17 16 17 18 16 16 28 33 52 47 54 60 56 56 64 60 54 40 34 36 42 44 45 49 52 53 54 57 58 58 66 63 68 79 80 72 72 73 71 72 70 70 71
20 19 17 17 16 17 18 17 17 16 14 15 18 38 29 22 48 76 72 58 50 52 55 56 44 36 36 50 52 52 55 58 62 67 72 84 99 84 99 91 76 73 72 73 71 64 58 62 82
20 20 15 19 19 19 19 17 17 16 14 14 16 18 36 38 25 65 62 66 73 71 76 57 52 45 39 64 78 72 90 89 90 97 89 92 74 71 71 81 68 65 59 62 63 52 55 68 66
22 19 18 17 18 19 17 17 17 16 15 14 16 19 25 42 45 50 55 58 66 76 64 68 71 54 52 86 92 91 92 97 98 99 77 84 75 74 93 94 94 88 71 82 62 57 38 24 28
21 18 18 18 19 18 18 17 16 16 15 16 16 20 24 32 35 42 49 53 64 73 82 90 76 66 62 63 93 95 98 99 99 100 92 94 96 98 98 96 94 88 76 55 37 49 20 16 15
20 19 18 18 17 17 17 16 18 14 18 18 21 21 23 28 34 40 56 60 70 80 87 97 97 71 70 74 88 99 98 97 98 94 98 88 99 100 100 99 95 85 60 51 30 31 28 25 40
21 22 18 18 17 16 17 17 16 16 19 19 19 19 22 36 40 45 53 58 65 77 88 86 70 72 72 78 83 98 99 99 100 85 74 72 77 95 96 99 99 92 81 47 25 20 25 54 49
22 22 22 16 16 17 18 14 15 19 18 17 20 22 28 39 46 55 64 70 74 76 83 96 76 68 68 66 74 85 99 100 98 97 98 93 86 83 86 93 98 92 73 51 41 32 55 66 70
23 24 22 18 16 15 18 15 13 18 19 18 21 25 32 38 45 57 65 70 66 77 90 97 99 100 94 85 79 78 91 96 98 99 99 98 90 96 99 99 100 88 72 60 44 56 64 69 72
26 26 24 22 18 19 18 18 14 15 16 18 23 29 34 40 49 59 66 80 90 85 99 99 98 99 100 99 98 95 97 100 100 100 100 99 100 99 98 100 99 93 81 66 56 60 67 68 70
24 24 23 19 18 21 20 19 16 15 16 19 23 30 36 42 46 49 54 60 67 83 89 76 82 72 93 98 100 100 100 100 100 100 100 99 100 100 100 99 100 99 92 72 47 46 73 71 75
27 28 26 22 22 24 23 23 19 17 17 18 23 31 39 41 41 44 45 48 50 48 56 63 71 71 66 88 95 98 98 97 97 98 97 98 97 98 100 100 100 100 99 86 70 48 70 71 79
28 30 28 28 24 24 27 28 22 23 29 33 35 38 40 40 38 40 41 46 44 22 21 27 45 65 44 33 94 77 93 86 86 88 87 86 92 95 98 99 100 100 100 97 85 62 60 69 80
36 26 28 29 32 36 25 32 20 29 35 36 43 43 45 43 40 40 38 41 42 23 16 15 14 14 13 24 81 89 83 80 82 94 94 76 86 95 93 98 100 100 99 100 97 82 63 69 78
33 28 31 32 37 36 33 38 23 20 36 38 41 45 47 43 39 38 37 37 34 21 16 15 15 14 13 12 14 55 86 78 85 96 100 100 86 83 90 96 98 100 100 100 100 97 79 72 71
28 32 32 33 34 45 33 31 26 21 26 34 39 46 45 42 39 32 28 28 28 30 13 10 10 9 9 11 12 12 13 31 31 26 86 99 99 96 89 96 100 100 100 100 100 100 96 82 79
32 38 49 44 42 42 25 29 25 28 23 33 40 48 46 35 28 25 24 24 27 29 32 15 13 17 13 11 12 14 18 21 44 66 48 43 90 97 84 89 96 98 100 100 100 100 100 96 88
38 38 52 75 46 36 26 34 25 36 34 37 44 48 38 26 26 26 26 28 27 28 31 12 10 20 34 21 18 25 27 34 33 43 63 85 91 89 98 100 98 96 99 100 100 100 100 100 83
48 48 38 66 58 55 33 28 42 43 42 41 42 37 27 25 26 25 26 27 27 27 29 36 44 46 46 47 54 28 25 32 41 37 36 36 34 43 51 68 95 99 100 100 100 100 100 100 93
48 42 80 91 76 64 37 34 29 49 43 37 33 28 24 24 24 24 25 27 28 28 31 38 40 40 43 55 57 57 26 22 40 43 39 36 35 37 45 82 92 98 97 99 100 100 100 100 100
48 60 57 54 58 66 53 34 34 38 36 37 28 23 21 22 24 25 28 30 30 31 32 36 38 38 35 50 56 35 34 25 34 48 49 46 43 40 40 76 97 98 99 99 100 100 100 100 100
33 46 54 95 95 66 63 54 38 33 36 34 26 22 23 26 26 28 31 33 34 35 36 39 39 40 36 52 59 46 41 38 42 46 52 52 52 54 56 65 93 97 99 100 100 100 100 100 100

GFSSGP_850_rhum_216.txt.gz
RH
14 15 16 14 15 12 12 7 7 8 8 8 10 11 13 27 39 57 46 44 49 52 30 21 22 24 25 23 22 32 47 54 57 59 59 59 59 57 57 61 55 40 37 43 49 47 43 42 39
18 23 14 13 17 15 9 5 7 8 8 10 11 12 14 77 54 54 59 52 64 59 32 23 24 27 28 27 25 31 42 49 55 58 60 59 57 56 54 53 42 37 40 39 40 42 38 38 38
17 20 13 13 12 12 9 7 9 9 10 10 16 18 26 65 57 58 65 55 70 74 34 25 23 30 33 30 28 31 36 43 45 53 57 54 50 43 42 41 37 38 37 35 38 39 39 40 40
24 16 12 12 12 7 8 10 11 10 11 12 17 21 45 50 59 61 60 57 71 75 48 26 28 32 36 32 27 27 29 33 37 43 47 47 41 34 32 34 36 36 36 35 38 39 40 40 41
20 16 16 14 10 7 7 10 12 12 12 13 14 28 46 54 57 62 58 62 69 73 67 29 27 31 33 26 22 24 25 26 30 32 34 32 32 31 30 33 37 39 38 38 40 42 44 40 38
18 15 17 15 11 8 6 10 12 12 13 16 19 21 45 55 57 60 62 64 67 68 67 35 29 29 26 19 21 26 25 27 30 30 30 30 32 32 34 37 40 41 67 58 55 55 51 50 49
18 18 18 13 11 8 6 11 12 11 11 16 21 21 46 58 60 61 64 65 66 66 60 34 26 27 22 21 24 26 26 26 28 30 32 33 35 37 40 42 45 48 71 71 61 61 60 61 60
17 15 17 14 13 11 7 10 11 11 10 13 18 29 82 68 67 63 65 66 68 74 50 25 22 20 21 25 29 30 29 31 32 34 36 38 40 43 46 50 54 62 71 70 69 66 63 63 63
17 19 20 15 12 11 9 9 10 11 12 12 16 25 56 61 66 66 66 70 73 79 68 31 23 24 26 30 33 34 34 35 37 39 41 43 46 48 51 55 60 66 65 65 65 66 63 60 59
16 20 17 12 10 10 9 10 9 12 12 11 13 21 28 41 57 62 68 73 73 79 86 83 56 33 33 35 35 38 38 40 42 44 45 48 52 56 60 70 77 82 71 64 60 58 53 45 40
16 19 14 13 12 12 11 10 11 10 12 10 11 19 22 29 35 43 49 63 73 75 80 85 83 74 47 88 61 46 46 47 49 50 51 55 65 96 93 98 98 89 76 64 58 55 46 38 58
17 14 14 14 13 13 13 12 12 11 10 10 10 14 19 26 27 32 33 37 54 68 76 78 84 88 86 85 88 83 59 63 58 66 82 80 84 91 94 89 88 84 74 72 58 55 52 39 66
15 14 14 14 13 13 13 13 12 11 11 11 11 12 14 15 22 24 25 27 39 56 73 77 79 86 89 86 82 84 80 86 81 87 86 80 82 91 88 87 87 87 84 83 83 81 71 61 66
15 14 14 14 14 13 13 13 13 12 11 11 11 12 12 14 15 19 23 25 30 47 65 76 77 83 91 82 81 81 81 81 80 84 87 87 86 86 88 90 94 93 79 77 78 80 70 66 57
18 19 16 15 15 14 13 15 14 12 11 11 11 12 13 14 18 19 26 28 29 37 60 73 78 82 91 91 82 88 82 82 81 83 77 79 87 86 86 87 83 80 79 76 72 73 66 59 56
22 20 24 17 14 14 14 19 12 12 11 12 14 14 15 20 23 30 37 40 40 42 48 71 83 85 92 90 87 90 96 90 86 90 92 88 88 87 90 89 86 83 83 81 76 72 68 58 55
24 30 24 19 13 13 14 17 12 10 11 12 13 14 16 25 30 39 43 39 39 45 56 67 82 77 80 97 99 99 99 98 95 92 91 90 91 91 92 90 88 91 86 83 83 77 67 58 53
28 26 24 23 15 13 15 16 13 13 13 13 14 15 16 22 33 43 55 59 63 58 67 78 95 96 91 97 98 99 98 98 96 98 96 93 92 92 93 93 95 94 96 90 86 81 69 56 56
21 22 21 16 14 14 16 16 14 12 14 14 13 14 16 22 35 44 56 68 76 76 82 90 89 89 86 90 94 95 94 95 98 98 100 97 93 90 92 95 94 93 89 98 98 87 78 61 56
24 26 25 19 15 16 16 17 14 13 12 13 13 14 16 28 34 42 50 58 59 64 69 72 76 81 84 83 83 91 93 92 93 87 90 92 95 98 98 98 98 97 96 100 99 97 86 70 58
24 26 26 24 18 16 18 19 18 15 14 13 12 12 15 28 31 37 44 51 51 52 53 58 68 77 80 96 78 64 69 71 75 77 78 82 78 77 87 96 98 100 100 98 100 100 92 82 72
28 20 21 23 24 29 18 31 22 18 18 15 14 13 19 29 31 36 40 45 49 48 44 41 41 43 68 75 84 83 67 63 64 64 88 99 98 89 82 89 99 100 92 95 96 99 100 89 77
25 20 20 22 25 27 25 28 22 16 17 17 16 17 25 29 31 33 37 41 44 50 47 42 40 22 14 13 14 14 18 23 14 25 40 40 42 52 81 83 95 97 98 100 100 99 99 100 92
20 22 24 26 29 43 34 32 29 21 18 18 20 20 27 30 31 31 33 34 39 42 41 30 37 36 23 17 15 12 10 9 8 12 20 34 58 71 82 76 83 91 90 90 97 99 99 100 100
22 30 45 51 48 45 26 28 28 21 18 18 24 26 30 32 32 32 31 27 29 34 36 30 30 30 27 25 21 17 17 19 29 46 53 53 55 62 72 82 80 76 85 94 98 99 99 100 100
28 30 51 60 52 44 33 42 27 18 15 15 24 29 34 33 34 32 27 25 27 30 31 33 31 32 35 35 33 24 19 13 18 26 45 46 34 22 35 54 82 89 76 76 85 86 89 100 100
34 37 29 45 43 56 47 36 26 22 22 27 29 33 35 36 34 26 25 27 27 27 29 31 22 29 34 35 35 32 27 24 31 38 43 46 46 77 80 83 74 46 44 55 70 81 85 98 100
28 27 50 52 92 76 53 42 36 32 30 32 34 38 38 36 31 28 26 28 27 27 28 30 32 34 36 38 41 45 43 45 42 34 38 59 70 84 91 78 56 50 53 51 52 66 67 91 90
35 40 38 46 68 68 60 41 26 30 27 34 37 39 37 31 29 26 26 26 28 29 31 32 36 38 40 42 48 51 55 60 59 59 63 78 85 87 92 64 51 54 53 52 53 57 66 81 83
31 39 40 85 95 72 67 53 29 29 29 32 36 40 35 29 27 25 26 28 30 31 31 32 35 40 43 46 50 55 60 67 69 74 80 90 88 86 100 76 62 57 57 58 57 58 68 76 85

GFSSGP_850_rhum_222.txt.gz
RH
14 16 20 26 26 34 32 25 16 14 12 14 28 43 62 62 58 61 54 51 48 31 18 32 26 23 30 36 39 43 48 50 51 52 52 50 47 39 33 32 26 26 30 32 35 36 36 34 34
14 18 25 28 29 36 30 21 17 14 12 37 38 50 51 55 64 60 53 48 46 31 16 29 26 20 29 37 42 46 50 53 52 52 53 48 42 32 26 24 23 26 28 29 32 34 33 32 33
16 19 24 26 35 36 28 17 17 13 11 14 48 43 44 44 50 62 58 53 50 38 18 28 27 19 26 34 39 45 50 51 51 47 47 42 35 28 24 23 23 25 27 29 32 32 33 34 35
16 24 24 24 26 23 18 15 15 14 15 33 40 51 37 46 44 70 57 59 60 47 25 32 28 21 20 25 31 38 44 48 46 44 43 37 34 28 25 24 25 26 28 29 30 32 34 33 33
22 25 33 33 28 20 17 14 15 14 14 32 39 62 57 44 55 77 63 60 69 55 30 30 26 23 20 19 21 28 34 40 38 40 37 33 31 27 27 27 28 29 31 31 32 33 35 36 32
26 26 36 39 31 22 18 14 14 14 32 48 56 79 73 32 48 63 70 60 60 52 34 30 28 25 22 20 20 26 26 28 28 30 32 28 27 27 27 29 32 33 38 37 37 40 42 42 40
34 40 40 34 33 26 19 13 15 14 15 41 52 89 48 24 27 57 70 59 61 50 34 31 29 31 29 27 21 21 23 23 25 26 30 28 28 29 30 32 35 36 44 43 42 43 45 48 50
26 33 34 34 31 29 18 14 12 13 14 43 36 80 71 25 32 42 60 61 66 45 37 30 31 33 30 25 20 24 26 25 25 26 28 29 30 31 33 35 37 39 40 44 42 43 43 45 45
26 37 44 36 27 23 18 16 12 12 17 29 43 35 26 24 39 64 68 66 69 68 62 34 31 30 28 24 20 25 27 27 28 30 31 32 33 35 36 38 40 42 44 49 48 43 43 43 44
29 43 36 26 23 22 18 17 14 13 17 36 34 33 27 41 62 68 67 66 67 66 68 59 31 26 29 24 23 26 27 28 30 32 34 36 37 39 42 44 45 47 48 50 50 49 46 44 43
27 33 26 23 21 20 19 17 15 14 15 27 28 28 36 68 69 69 67 56 46 50 56 41 24 28 27 21 24 28 29 30 32 35 37 39 41 45 49 50 51 55 55 61 62 57 48 44 42
28 23 23 21 19 19 20 15 16 15 14 14 22 23 36 63 67 68 61 57 51 45 40 39 28 25 24 23 26 28 30 32 34 36 39 42 44 48 52 59 68 73 76 80 66 58 53 46 42
26 24 20 20 19 18 17 17 16 15 14 14 15 33 32 39 63 58 46 39 39 46 47 46 39 29 26 26 28 32 35 36 38 40 42 45 48 50 52 58 73 82 81 84 79 76 70 51 40
22 23 23 21 20 20 19 18 16 14 14 14 16 38 42 53 52 47 54 48 51 51 59 58 53 55 49 38 32 45 72 72 60 52 66 68 71 72 73 71 78 84 84 88 86 82 78 73 49
24 28 29 24 22 20 19 22 20 15 14 13 13 15 37 50 60 66 69 64 58 54 54 55 55 62 65 60 56 70 68 77 78 75 77 78 78 80 85 85 85 90 88 89 92 87 84 78 75
29 29 37 26 24 21 20 29 21 16 15 14 13 13 15 26 30 38 44 34 36 54 62 53 59 70 75 71 70 78 81 80 78 82 82 80 82 80 84 89 91 88 92 94 97 83 76 78 78
35 41 40 34 25 26 24 27 20 16 17 16 14 13 20 32 34 34 39 41 41 51 62 65 65 72 79 82 80 86 82 83 82 84 85 86 86 82 82 88 92 94 94 93 98 93 83 79 76
42 45 37 38 23 27 29 30 21 18 18 17 16 15 20 31 32 30 30 39 57 63 55 62 64 72 84 89 91 92 87 83 86 86 87 89 85 83 91 98 95 93 96 95 93 95 93 86 85
32 37 38 33 26 27 32 30 26 20 19 18 15 18 29 31 38 33 29 29 38 50 63 68 68 78 86 94 89 88 84 85 86 90 94 93 89 89 89 85 85 87 96 93 96 98 100 97 94
39 42 41 33 27 28 31 32 27 23 20 17 17 25 36 36 42 39 32 34 37 49 68 77 78 84 91 95 97 95 88 87 85 92 98 99 97 97 94 93 91 90 86 96 92 93 98 100 98
42 44 42 40 30 28 34 35 29 22 19 16 16 20 34 27 40 47 43 45 43 49 66 87 99 96 92 95 93 92 89 86 87 90 86 83 91 94 93 93 93 95 96 96 99 99 100 100 98
50 36 37 37 39 49 32 45 34 27 24 21 17 24 42 47 48 43 40 43 55 58 74 79 84 94 92 87 86 84 82 84 88 86 88 84 80 63 44 51 64 71 83 96 99 97 93 95 98
44 34 36 37 41 43 38 46 35 27 27 24 23 25 36 35 36 42 42 48 60 66 72 80 79 82 87 94 77 77 86 84 72 73 66 56 53 57 45 42 53 67 78 80 77 83 80 82 96
35 37 37 39 42 57 40 40 36 31 28 26 22 19 37 46 45 46 49 50 54 61 69 73 77 94 99 80 79 71 78 65 51 38 41 46 45 40 37 50 64 68 70 86 99 98 98 94 92
40 47 70 75 66 61 35 43 32 28 23 23 26 24 34 45 50 48 50 50 47 48 52 50 52 83 82 79 75 36 19 13 9 9 12 20 33 49 58 72 81 85 87 86 83 80 79 80 69
43 43 67 72 69 57 38 51 40 27 23 22 19 19 32 48 52 51 50 48 46 44 42 38 30 22 17 15 14 13 13 12 10 8 9 14 25 32 38 42 45 46 51 64 72 80 76 64 56
41 47 35 61 59 71 54 48 37 28 31 28 28 38 44 50 51 50 48 44 44 43 40 31 24 20 19 18 18 17 14 12 13 14 18 22 25 26 32 39 43 43 44 44 46 52 52 48 47
34 31 49 52 74 76 60 59 50 41 32 34 35 44 46 49 51 50 45 42 36 29 24 24 21 19 20 22 23 24 22 21 20 19 22 29 30 33 41 52 59 63 63 49 37 38 45 49 51
40 42 40 41 70 69 70 55 41 38 40 47 48 45 45 45 47 47 41 33 31 30 28 26 24 22 26 29 33 33 32 35 37 39 41 46 53 56 63 68 69 70 66 50 38 48 53 54 55
34 37 36 64 63 67 65 56 39 37 43 52 49 46 43 40 40 37 32 30 31 29 27 26 26 29 32 33 35 38 44 46 50 59 66 70 67 70 77 85 91 89 77 53 58 62 63 65 63

GFSSGP_850_rhum_225.txt.gz
RH
15 18 19 27 24 36 33 27 20 18 14 33 44 43 54 65 56 50 54 35 30 22 26 35 38 40 38 40 38 38 40 40 42 43 44 42 40 39 40 32 27 31 33 35 38 37 38 36 36
17 19 21 24 33 32 26 24 20 18 33 50 48 50 54 64 67 53 53 49 45 20 23 30 34 40 42 42 41 42 45 45 46 46 46 45 42 39 33 26 25 28 29 30 32 34 36 34 35
19 19 24 31 41 32 30 20 18 15 36 26 43 45 46 53 67 62 52 48 48 20 20 29 30 34 42 43 42 44 45 46 46 47 46 43 39 33 29 24 23 24 26 27 29 30 32 33 34
17 26 25 30 30 26 23 19 17 16 26 36 40 48 37 34 58 54 58 51 46 30 21 27 25 29 39 43 43 45 45 47 45 44 45 38 34 30 26 26 25 25 25 26 29 30 32 33 35
20 26 36 36 26 22 20 17 17 16 17 49 47 60 44 35 43 56 58 57 47 29 28 28 23 22 33 37 43 46 45 46 43 42 41 34 30 29 27 27 28 27 26 29 31 33 34 35 36
28 28 40 42 33 27 24 18 17 16 28 47 53 66 43 45 59 67 66 64 60 50 32 42 24 23 30 37 41 44 44 42 38 38 33 32 31 28 28 28 30 30 30 32 34 38 40 39 37
35 44 42 37 35 28 22 18 17 16 45 44 43 59 35 54 70 71 69 66 63 58 37 35 24 30 31 29 34 36 39 35 34 34 30 29 28 28 29 30 32 33 45 38 40 42 45 48 50
28 39 38 36 34 30 22 19 15 15 19 34 43 46 28 46 66 66 70 68 60 56 42 29 28 32 30 28 28 28 30 30 30 29 29 30 32 32 31 34 36 36 46 52 43 45 46 49 53
28 43 51 38 31 25 21 22 18 15 35 40 38 36 34 41 66 67 77 67 62 42 42 34 34 30 30 30 25 24 27 24 26 28 34 36 34 34 35 38 40 42 45 54 49 42 42 40 42
33 49 42 33 26 25 23 22 19 15 34 40 39 30 30 34 51 52 61 51 56 46 38 37 34 32 35 33 24 21 25 23 24 27 32 33 35 37 39 42 46 48 50 53 53 48 43 40 38
30 40 32 28 24 23 24 22 20 16 17 33 35 26 26 29 36 48 37 33 40 45 52 44 33 38 33 33 25 22 22 24 26 30 32 35 36 39 41 45 48 51 54 57 61 55 52 47 41
34 28 26 25 22 23 25 20 18 16 15 14 18 23 21 20 23 37 48 41 48 49 50 51 53 36 31 35 26 20 21 24 27 30 33 35 37 40 43 46 53 65 67 76 75 61 60 52 48
31 26 22 22 22 23 21 21 20 17 14 15 14 26 24 23 24 31 46 52 51 45 42 45 51 38 27 27 23 19 21 25 29 32 34 37 40 43 46 48 55 69 79 79 81 78 78 71 54
25 26 26 25 24 24 23 22 20 16 15 15 15 20 28 34 29 32 43 45 48 46 40 40 37 34 27 25 22 21 24 28 33 35 37 41 43 47 50 52 58 73 80 83 86 88 87 80 75
27 31 31 25 25 25 20 25 24 17 15 16 19 19 26 33 48 39 36 38 39 45 51 40 40 36 31 28 26 26 29 34 50 55 46 52 67 70 75 78 79 81 88 88 89 91 91 91 80
32 30 40 26 26 24 22 32 24 17 18 16 16 17 31 31 40 40 42 41 42 53 53 58 55 46 43 46 38 33 46 69 72 76 74 78 80 83 85 86 88 90 91 92 93 87 87 76 79
39 50 44 32 26 26 26 31 24 19 19 18 16 17 17 28 43 42 47 38 46 50 55 63 60 54 56 62 64 52 71 74 75 77 78 82 83 85 84 84 86 94 93 95 96 96 94 90 80
47 47 39 39 27 29 33 34 28 23 22 20 18 18 18 18 35 46 45 42 35 40 44 58 61 60 63 76 78 82 87 86 86 83 81 83 84 82 81 83 88 97 99 89 92 97 100 99 94
36 38 42 35 29 30 36 38 33 24 25 24 21 20 22 24 31 41 41 36 34 32 33 52 66 59 69 79 85 89 85 87 89 83 78 77 80 80 79 82 82 92 80 80 93 100 100 100 100
44 47 48 39 32 32 36 34 29 29 28 23 22 22 22 34 47 51 43 41 37 36 48 61 68 61 64 77 80 89 87 99 95 94 90 92 87 91 86 91 94 92 92 89 84 91 95 94 99
48 49 47 45 34 31 38 39 34 28 24 20 19 20 21 25 49 56 49 41 41 47 45 49 63 63 65 74 93 94 100 100 97 85 89 98 96 97 98 98 99 98 97 97 100 99 100 100 99
57 41 40 41 44 52 38 47 36 33 32 24 22 25 36 51 62 62 58 49 39 35 33 47 67 82 91 99 98 100 96 86 85 87 81 86 85 83 80 87 82 83 95 97 91 95 94 94 98
49 36 39 40 44 52 46 58 45 33 32 28 27 28 44 42 44 52 57 48 49 45 34 54 70 89 97 100 99 93 88 90 89 86 85 87 85 82 61 42 29 41 53 63 73 83 100 94 99
38 41 39 47 53 70 49 50 41 32 31 27 26 28 29 46 52 62 68 60 62 63 65 67 83 98 95 94 89 84 76 79 76 77 80 69 54 44 37 29 26 43 55 59 57 66 91 89 87
46 53 74 82 82 73 39 43 34 29 23 25 25 28 29 36 55 57 63 78 80 77 72 77 85 88 94 93 83 81 81 76 62 57 39 25 20 17 22 36 52 61 63 64 72 79 83 84 83
50 53 68 70 61 53 41 47 31 27 27 22 21 20 26 48 52 54 55 64 70 75 81 78 81 80 99 86 78 71 73 63 24 11 13 18 19 23 26 30 38 43 40 35 36 39 45 48 56
51 61 42 59 62 74 44 38 38 30 30 30 32 31 45 49 53 52 53 53 55 61 65 77 88 90 84 65 69 28 15 13 12 12 12 12 12 13 15 18 22 27 31 32 32 32 29 34 37
42 38 64 62 88 67 58 59 40 45 32 30 36 52 49 46 55 57 52 49 48 51 48 41 55 64 33 23 18 18 18 16 17 17 15 16 18 20 24 34 42 47 50 52 51 46 36 31 43
50 52 49 60 73 61 55 42 38 39 41 40 40 44 47 50 55 57 54 46 44 44 41 35 26 21 19 18 20 20 20 22 20 21 26 32 36 38 42 50 56 62 65 64 56 49 48 50 50
39 47 45 68 65 59 54 44 37 40 43 43 42 45 49 50 59 61 56 46 43 42 38 28 23 21 18 20 21 21 25 25 25 31 36 43 53 62 74 82 87 88 87 79 61 56 58 61 64